Location: Brno
(49.2000°N, 16.6330°E)
Time: 05:48:40
(UTC+01:00)

ISS - Visible Passes

Search period start: 19 January 2019 00:00
Search period end: 29 January 2019 00:00
Orbit: 404 x 411 km, 51.6° (Epoch: 19 January)

Date Brightness Start Highest point End Pass type
(mag) Time Alt. Az. Time Alt. Az. Time Alt. Az.
23 Jan -2.1 18:38:59 10° SSW 18:40:55 24° S 18:40:55 24° S visible
24 Jan -1.9 17:48:20 10° S 17:50:40 18° SE 17:51:51 15° ESE visible
24 Jan -1.2 19:23:30 10° WSW 19:24:35 19° WSW 19:24:35 19° WSW visible
25 Jan -3.6 18:32:12 10° SW 18:35:26 53° SSE 18:35:26 53° SSE visible
26 Jan -2.8 17:41:04 10° SW 17:44:06 34° SSE 17:46:13 17° E visible
26 Jan -1.7 19:17:13 10° W 19:18:57 28° W 19:18:57 28° W visible
27 Jan -3.9 18:25:45 10° WSW 18:29:03 90° NNE 18:29:40 56° ENE visible
28 Jan -3.6 17:34:21 10° WSW 17:37:38 64° SSE 17:40:21 14° ENE visible
28 Jan -2.1 19:10:59 10° W 19:13:04 33° WNW 19:13:04 33° WNW visible
